{"data":{"norad_id":65328,"intl_designator":"2025-189F","name":"STARLINK-34885","alt_names":[],"object_type":"PAYLOAD","status":"ACTIVE","operator":null,"country":"US","launch_date":"2025-08-27","launch_site_code":"AFETR","launch_vehicle":null,"mission":null,"orbit_class":"UNKNOWN","rcs_meters":null,"size_class":null,"mass_kg":null,"dimensions":null,"purposes":["comms"],"wikipedia_slug":null,"has_3d_model":false,"image_url":null,"decayed_at":null,"tle_current":{"epoch":"2026-09-20T11:50:30.206688Z","epoch_age_seconds":118428,"freshness":"FRESH","line1":"1 65328U 25189F   26263.49340517  .00016090  00000+0  52915-3 0  9991","line2":"2 65328  53.1585  20.3777 0000988  72.0321 288.0788 15.31698309 60898","mean_motion":15.31698309,"eccentricity":9.88e-5,"inclination_deg":53.1585,"raan_deg":20.3777,"arg_perigee_deg":72.0321,"mean_anomaly_deg":288.0788,"bstar":0.00052915,"rev_number":6089,"period_min":94.013291751959,"perigee_km":470.06836646813,"apogee_km":471.42170555845,"semimajor_km":6848.8820360133,"source":"CELESTRAK","updated_at":"2026-09-21T09:00:35.569765Z"}}}